Terminal Aerodrome Forecast
Issued by NWS Duluth, MN

Home | Current Version | Previous Version | Text Only | Print | Product List | Glossary On
Versions: 1 2 3 4 5 6 7 8 9 10 11 12 13 14 15 16 17 18 19 20 21 22 23 24 25 26 27 28 29 30 31 32 33 34 35 36
000
FTUS43 KDLH 280212 AAG
TAFINL
TAF AMD
KINL 280212Z 2802/2824 VRB04KT 4SM +RA BR VCTS OVC040CB
      TEMPO 2802/2804 -RA BKN005
     FM280600 26010KT 5SM -RA BR VCSH OVC035
     FM280900 31003KT 3SM BR OVC015
     FM281400 02006KT P6SM VCSH BKN035=

USA.gov is the U.S. government's official web portal to all federal, state and local government web resources and services.